Regional Weather Roundup
Issued by NWS Midland/Odessa, TX

Skip options and go directly to product.
Home | Oldest Version | Previous Version | Current Version | All | Graphics & Text | Save Text | Print | Product List | Glossary On

Skip product version selection by date and time.   
753
ASUS44 KMAF 260910
RWRMAF
MIDLAND AREA WEATHER ROUNDUP
NATIONAL WEATHER SERVICE MIDLAND TX
400 AM CDT SUN APR 26 2015

...IN SOUTHWEST TEXAS AND SOUTHEAST NEW MEXICO...

CITY           SKY/WX    TMP DP  RH WIND       PRES   REMARKS
ALPINE         CLEAR     54  28  36 S5        29.89S
ANDREWS        FAIR      60  26  27 SW7       29.74S
ARTESIA        CLEAR     61  25  25 SW8       29.74S
BIG SPRING     CLEAR     60  29  31 SE8       29.75S
CARLSBAD       CLEAR     54  25  32 CALM      29.72F
DRYDEN           N/A     65  51  60 N7        29.69F
FORT STOCKTON  CLEAR     61  34  36 SW14      29.75F
GUAD PASS      CLEAR     56  18  22 SW15      29.87F
HOBBS          PTCLDY    50  27  40 SW6       29.76S
MARFA          CLEAR     41  34  75 NE5       29.88S WCI  38
MIDLAND AIRPK  CLEAR     65  37  36 SW9       29.75R
MIDLAND INTL   CLEAR     63  42  46 S9          N/A
ODESSA         CLEAR     59  39  47 S9        29.75S
PECOS          CLEAR     49  24  37 S3        29.72F
PRESIDIO       FAIR      57  27  31 NE5       29.78R
SEMINOLE       CLEAR     53  28  38 W7        29.75S
SNYDER         CLEAR     55  41  59 S7        29.72S
WINK           PTCLDY    50  24  36 SE9       29.72F
$$
...OTHER STATIONS IN TEXAS...

CITY           SKY/WX    TMP DP  RH WIND       PRES   REMARKS
ABILENE        CLEAR     59  39  47 S3        29.69S
AMARILLO       CLEAR     53  32  44 SW6       29.70S
AUSTIN         MOCLDY    70  68  93 S7        29.70S
BROWNSVILLE    CLOUDY    79  78  97 SE5       29.66S FOG
CORPUS CHRISTI LGT RAIN  75  73  93 CALM      29.68F FOG
DALLAS FTW     CLEAR     63  52  67 S5        29.64F
DEL RIO        MOCLDY    70  61  73 E8        29.66F
EL PASO        CLOUDY    65  22  19 SW12      29.79F
HOUSTON INT    FOG       70  69  97 SW3       29.70R VSB 1/2
LUBBOCK        CLOUDY    54  30  40 W7        29.71R
SAN ANGELO     CLEAR     56  42  59 W5        29.71S
SAN ANTONIO    MOCLDY    72  69  90 S6        29.72S
WACO           CLEAR     62  59  90 S5        29.68S
WICHITA FALLS  NOT AVBL
$$
...OTHER LOCATIONS IN NEW MEXICO...

CITY           SKY/WX    TMP DP  RH WIND       PRES   REMARKS
ALAMAGORDO     CLOUDY    59  23  25 S10       29.79F
ALBUQUERQUE    CLOUDY    56  31  38 W8        29.77F
CANNON AFB     PTCLDY    56  23  28 W10       29.73S
CLOVIS         CLEAR     50  27  40 W10       29.73S
HOLLOMAN AFB   CLOUDY    58  24  26 SE9       29.76F
ROSWELL        PTCLDY    48  30  49 SW6       29.72F
RUIDOSO        MOCLDY    54  19  26 SE6       29.84F
SANTA FE       CLOUDY    50  27  40 NW20G25   29.79F
TRUTH OR CONSE MOCLDY    60  25  26 SW13      29.74F
TUCUMCARI      CLEAR     52  25  35 SW13      29.67F
$$

USA.gov is the U.S. government's official web portal to all federal, state and local government web resources and services.